Tracking 30415 objects as of 15-May-2025
HD Live streaming from Space Station
objects crossing your sky now

ONEWEB-0118

Track ONEWEB-0118 now!
10-day predictions
ONEWEB-0118 is classified as:


NORAD ID: 47264
Int'l Code: 2020-100G
Perigee: 1,219.1 km
Apogee: 1,222.6 km
Inclination: 87.9 °
Period: 109.7 minutes
Semi major axis: 7591 km
RCS: Unknown
Launch date: December 18, 2020
Source: United Kingdom (UK)
Launch site: VOSTOCHNY COSMODROME (VOSTO)
Your satellite tracking list
Your tracking list is empty




NASA's NSSDC Master Catalog

Two Line Element Set (TLE):
1 47264U 20100G   25134.83938980 -.00000413  00000-0 -11844-2 0  9999
2 47264  87.8881  69.8874 0002328  82.7743 277.3650 13.12441578212475
Source of the keplerian elements: AFSPC